Year,Month,Day,Hour,Minute,Value (Times are PST for temperature in C)
2013,10,16,00,00,6.60
2013,10,16,00,01,6.60
2013,10,16,00,02,6.50
2013,10,16,00,03,6.50
2013,10,16,00,04,6.50
2013,10,16,00,05,6.50
2013,10,16,00,06,6.50
2013,10,16,00,07,6.50
2013,10,16,00,08,6.50
2013,10,16,00,09,6.50
2013,10,16,00,10,6.50
2013,10,16,00,11,6.50
2013,10,16,00,12,6.50
2013,10,16,00,13,6.50
2013,10,16,00,14,6.40
2013,10,16,00,15,6.40
2013,10,16,00,16,6.40
2013,10,16,00,17,6.40
2013,10,16,00,18,6.40
2013,10,16,00,19,6.40
2013,10,16,00,20,6.40
2013,10,16,00,21,6.40
2013,10,16,00,22,6.40
2013,10,16,00,23,6.40
2013,10,16,00,24,6.40
2013,10,16,00,25,6.40
2013,10,16,00,26,6.40
2013,10,16,00,27,6.40
2013,10,16,00,28,6.40
2013,10,16,00,29,6.40
2013,10,16,00,30,6.40
2013,10,16,00,31,6.40
2013,10,16,00,32,6.40
2013,10,16,00,33,6.40
2013,10,16,00,34,6.50
2013,10,16,00,35,6.50
2013,10,16,00,36,6.50
2013,10,16,00,37,6.50
2013,10,16,00,38,6.50
2013,10,16,00,39,6.50
2013,10,16,00,40,6.50
2013,10,16,00,41,6.50
2013,10,16,00,42,6.50
2013,10,16,00,43,6.50
2013,10,16,00,44,6.50
2013,10,16,00,45,6.50
2013,10,16,00,46,6.50
2013,10,16,00,47,6.50
2013,10,16,00,48,6.60
2013,10,16,00,49,6.60
2013,10,16,00,50,6.60
2013,10,16,00,51,6.60
2013,10,16,00,52,6.50
2013,10,16,00,53,6.50
2013,10,16,00,54,6.50
2013,10,16,00,55,6.50
2013,10,16,00,56,6.40
2013,10,16,00,57,6.40
2013,10,16,00,58,6.40
2013,10,16,00,59,6.40
2013,10,16,01,00,6.40
2013,10,16,01,01,6.40
2013,10,16,01,02,6.40
2013,10,16,01,03,6.40
2013,10,16,01,04,6.40
2013,10,16,01,05,6.40
2013,10,16,01,06,6.40
2013,10,16,01,07,6.40
2013,10,16,01,08,6.40
2013,10,16,01,09,6.40
2013,10,16,01,10,6.40
2013,10,16,01,11,6.30
2013,10,16,01,12,6.30
2013,10,16,01,13,6.30
2013,10,16,01,14,6.30
2013,10,16,01,15,6.30
2013,10,16,01,16,6.30
2013,10,16,01,17,6.30
2013,10,16,01,18,6.30
2013,10,16,01,19,6.30
2013,10,16,01,20,6.30
2013,10,16,01,21,6.30
2013,10,16,01,22,6.40
2013,10,16,01,23,6.40
2013,10,16,01,24,6.40
2013,10,16,01,25,6.40
2013,10,16,01,26,6.40
2013,10,16,01,27,6.40
2013,10,16,01,28,6.40
2013,10,16,01,29,6.40
2013,10,16,01,30,6.40
2013,10,16,01,31,6.40
2013,10,16,01,32,6.40
2013,10,16,01,33,6.40
2013,10,16,01,34,6.40
2013,10,16,01,35,6.40
2013,10,16,01,36,6.40
2013,10,16,01,37,6.40
2013,10,16,01,38,6.40
2013,10,16,01,39,6.40
2013,10,16,01,40,6.40
2013,10,16,01,41,6.40
2013,10,16,01,42,6.40
2013,10,16,01,43,6.40
2013,10,16,01,44,6.40
2013,10,16,01,45,6.40
2013,10,16,01,46,6.30
2013,10,16,01,47,6.40
2013,10,16,01,48,6.40
2013,10,16,01,49,6.40
2013,10,16,01,50,6.40
2013,10,16,01,51,6.30
2013,10,16,01,52,6.30
2013,10,16,01,53,6.30
2013,10,16,01,54,6.30
2013,10,16,01,55,6.30
2013,10,16,01,56,6.30
2013,10,16,01,57,6.30
2013,10,16,01,58,6.30
2013,10,16,01,59,6.30
2013,10,16,02,00,6.40
2013,10,16,02,01,6.40
2013,10,16,02,02,6.40
2013,10,16,02,03,6.50
2013,10,16,02,04,6.50
2013,10,16,02,05,6.60
2013,10,16,02,06,6.60
2013,10,16,02,07,6.60
2013,10,16,02,08,6.60
2013,10,16,02,09,6.50
2013,10,16,02,10,6.50
2013,10,16,02,11,6.60
2013,10,16,02,12,6.60
2013,10,16,02,13,6.60
2013,10,16,02,14,6.60
2013,10,16,02,15,6.60
2013,10,16,02,16,6.60
2013,10,16,02,17,6.60
2013,10,16,02,18,6.60
2013,10,16,02,19,6.60
2013,10,16,02,20,6.60
2013,10,16,02,21,6.60
2013,10,16,02,22,6.60
2013,10,16,02,23,6.70
2013,10,16,02,24,6.70
2013,10,16,02,25,6.80
2013,10,16,02,26,6.90
2013,10,16,02,27,7.00
2013,10,16,02,28,7.10
2013,10,16,02,29,7.20
2013,10,16,02,30,7.20
2013,10,16,02,31,7.30
2013,10,16,02,32,7.30
2013,10,16,02,33,7.40
2013,10,16,02,34,7.50
2013,10,16,02,35,7.50
2013,10,16,02,36,7.60
2013,10,16,02,37,7.60
2013,10,16,02,38,7.70
2013,10,16,02,39,7.70
2013,10,16,02,40,7.70
2013,10,16,02,41,7.70
2013,10,16,02,42,7.80
2013,10,16,02,43,7.80
2013,10,16,02,44,7.70
2013,10,16,02,45,7.70
2013,10,16,02,46,7.70
2013,10,16,02,47,7.70
2013,10,16,02,48,7.70
2013,10,16,02,49,7.70
2013,10,16,02,50,7.70
2013,10,16,02,51,7.80
2013,10,16,02,52,7.80
2013,10,16,02,53,7.80
2013,10,16,02,54,7.80
2013,10,16,02,55,7.80
2013,10,16,02,56,7.80
2013,10,16,02,57,7.90
2013,10,16,02,58,7.90
2013,10,16,02,59,8.00
2013,10,16,03,00,8.10
2013,10,16,03,01,8.10
2013,10,16,03,02,8.20
2013,10,16,03,03,8.20
2013,10,16,03,04,8.30
2013,10,16,03,05,8.30
2013,10,16,03,06,8.40
2013,10,16,03,07,8.40
2013,10,16,03,08,8.50
2013,10,16,03,09,8.50
2013,10,16,03,10,8.60
2013,10,16,03,11,8.60
2013,10,16,03,12,8.60
2013,10,16,03,13,8.60
2013,10,16,03,14,8.70
2013,10,16,03,15,8.70
2013,10,16,03,16,8.70
2013,10,16,03,17,8.80
2013,10,16,03,18,8.80
2013,10,16,03,19,8.80
2013,10,16,03,20,8.80
2013,10,16,03,21,8.90
2013,10,16,03,22,8.90
2013,10,16,03,23,8.90
2013,10,16,03,24,8.90
2013,10,16,03,25,8.90
2013,10,16,03,26,9.00
2013,10,16,03,27,9.00
2013,10,16,03,28,9.00
2013,10,16,03,29,9.10
2013,10,16,03,30,9.10
2013,10,16,03,31,9.10
2013,10,16,03,32,9.10
2013,10,16,03,33,9.20
2013,10,16,03,34,9.20
2013,10,16,03,35,9.20
2013,10,16,03,36,9.20
2013,10,16,03,37,9.30
2013,10,16,03,38,9.30
2013,10,16,03,39,9.30
2013,10,16,03,40,9.30
2013,10,16,03,41,9.40
2013,10,16,03,42,9.40
2013,10,16,03,43,9.40
2013,10,16,03,44,9.40
2013,10,16,03,45,9.40
2013,10,16,03,46,9.40
2013,10,16,03,47,9.50
2013,10,16,03,48,9.50
2013,10,16,03,49,9.60
2013,10,16,03,50,9.60
2013,10,16,03,51,9.60
2013,10,16,03,52,9.70
2013,10,16,03,53,9.70
2013,10,16,03,54,9.70
2013,10,16,03,55,9.80
2013,10,16,03,56,9.80
2013,10,16,03,57,9.80
2013,10,16,03,58,9.80
2013,10,16,03,59,9.80
2013,10,16,04,00,9.90
2013,10,16,04,01,9.90
2013,10,16,04,02,9.90
2013,10,16,04,03,9.90
2013,10,16,04,04,9.90
2013,10,16,04,05,9.90
2013,10,16,04,06,10.00
2013,10,16,04,07,10.00
2013,10,16,04,08,10.00
2013,10,16,04,09,10.10
2013,10,16,04,10,10.10
2013,10,16,04,11,10.10
2013,10,16,04,12,10.10
2013,10,16,04,13,10.10
2013,10,16,04,14,10.10
2013,10,16,04,15,10.20
2013,10,16,04,16,10.20
2013,10,16,04,17,10.20
2013,10,16,04,18,10.20
2013,10,16,04,19,10.20
2013,10,16,04,20,10.20
2013,10,16,04,21,10.20
2013,10,16,04,22,10.20
2013,10,16,04,23,10.20
2013,10,16,04,24,10.20
2013,10,16,04,25,10.30
2013,10,16,04,26,10.30
2013,10,16,04,27,10.30
2013,10,16,04,28,10.30
2013,10,16,04,29,10.30
2013,10,16,04,30,10.30
2013,10,16,04,31,10.30
2013,10,16,04,32,10.30
2013,10,16,04,33,10.40
2013,10,16,04,34,10.40
2013,10,16,04,35,10.40
2013,10,16,04,36,10.40
2013,10,16,04,37,10.40
2013,10,16,04,38,10.40
2013,10,16,04,39,10.40
2013,10,16,04,40,10.40
2013,10,16,04,41,10.40
2013,10,16,04,42,10.40
2013,10,16,04,43,10.40
2013,10,16,04,44,10.40
2013,10,16,04,45,10.40
2013,10,16,04,46,10.40
2013,10,16,04,47,10.40
2013,10,16,04,48,10.40
2013,10,16,04,49,10.40
2013,10,16,04,50,10.40
2013,10,16,04,51,10.40
2013,10,16,04,52,10.40
2013,10,16,04,53,10.40
2013,10,16,04,54,10.40
2013,10,16,04,55,10.40
2013,10,16,04,56,10.50
2013,10,16,04,57,10.40
2013,10,16,04,58,10.50
2013,10,16,04,59,10.50
2013,10,16,05,00,10.50
2013,10,16,05,01,10.50
2013,10,16,05,02,10.50
2013,10,16,05,03,10.50
2013,10,16,05,04,10.50
2013,10,16,05,05,10.50
2013,10,16,05,06,10.50
2013,10,16,05,07,10.50
2013,10,16,05,08,10.50
2013,10,16,05,09,10.50
2013,10,16,05,10,10.50
2013,10,16,05,11,10.50
2013,10,16,05,12,10.50
2013,10,16,05,13,10.60
2013,10,16,05,14,10.60
2013,10,16,05,15,10.60
2013,10,16,05,16,10.60
2013,10,16,05,17,10.60
2013,10,16,05,18,10.60
2013,10,16,05,19,10.60
2013,10,16,05,20,10.60
2013,10,16,05,21,10.60
2013,10,16,05,22,10.60
2013,10,16,05,23,10.60
2013,10,16,05,24,10.60
2013,10,16,05,25,10.60
2013,10,16,05,26,10.60
2013,10,16,05,27,10.60
2013,10,16,05,28,10.60
2013,10,16,05,29,10.60
2013,10,16,05,30,10.60
2013,10,16,05,31,10.60
2013,10,16,05,32,10.60
2013,10,16,05,33,10.60
2013,10,16,05,34,10.60
2013,10,16,05,35,10.60
2013,10,16,05,36,10.60
2013,10,16,05,37,10.60
2013,10,16,05,38,10.60
2013,10,16,05,39,10.60
2013,10,16,05,40,10.60
2013,10,16,05,41,10.60
2013,10,16,05,42,10.50
2013,10,16,05,43,10.50
2013,10,16,05,44,10.50
2013,10,16,05,45,10.50
2013,10,16,05,46,10.50
2013,10,16,05,47,10.50
2013,10,16,05,48,10.40
2013,10,16,05,49,10.40
2013,10,16,05,50,10.40
2013,10,16,05,51,10.40
2013,10,16,05,52,10.40
2013,10,16,05,53,10.40
2013,10,16,05,54,10.40
2013,10,16,05,55,10.40
2013,10,16,05,56,10.40
2013,10,16,05,57,10.40
2013,10,16,05,58,10.40
2013,10,16,05,59,10.40
2013,10,16,06,00,10.30
2013,10,16,06,01,10.30
2013,10,16,06,02,10.30
2013,10,16,06,03,10.30
2013,10,16,06,04,10.30
2013,10,16,06,05,10.30
2013,10,16,06,06,10.30
2013,10,16,06,07,10.30
2013,10,16,06,08,10.30
2013,10,16,06,09,10.30
2013,10,16,06,10,10.20
2013,10,16,06,11,10.20
2013,10,16,06,12,10.20
2013,10,16,06,13,10.20
2013,10,16,06,14,10.20
2013,10,16,06,15,10.20
2013,10,16,06,16,10.20
2013,10,16,06,17,10.20
2013,10,16,06,18,10.20
2013,10,16,06,19,10.10
2013,10,16,06,20,10.10
2013,10,16,06,21,10.10
2013,10,16,06,22,10.10
2013,10,16,06,23,10.10
2013,10,16,06,24,10.10
2013,10,16,06,25,10.10
2013,10,16,06,26,10.10
2013,10,16,06,27,10.10
2013,10,16,06,28,10.10
2013,10,16,06,29,10.10
2013,10,16,06,30,10.10
2013,10,16,06,31,10.10
2013,10,16,06,32,10.10
2013,10,16,06,33,10.10
2013,10,16,06,34,10.10
2013,10,16,06,35,10.10
2013,10,16,06,36,10.10
2013,10,16,06,37,10.10
2013,10,16,06,38,10.10
2013,10,16,06,39,10.10
2013,10,16,06,40,10.10
2013,10,16,06,41,10.10
2013,10,16,06,42,10.10
2013,10,16,06,43,10.00
2013,10,16,06,44,10.00
2013,10,16,06,45,10.00
2013,10,16,06,46,10.00
2013,10,16,06,47,10.00
2013,10,16,06,48,10.00
2013,10,16,06,49,10.00
2013,10,16,06,50,10.00
2013,10,16,06,51,10.00
2013,10,16,06,52,10.00
2013,10,16,06,53,10.00
2013,10,16,06,54,10.00
2013,10,16,06,55,10.00
2013,10,16,06,56,10.00
2013,10,16,06,57,10.00
2013,10,16,06,58,10.00
2013,10,16,06,59,10.00
2013,10,16,07,00,10.00
2013,10,16,07,01,10.00
2013,10,16,07,02,10.00
2013,10,16,07,03,10.00
2013,10,16,07,04,10.00
2013,10,16,07,05,10.00
2013,10,16,07,06,10.00
2013,10,16,07,07,10.00
2013,10,16,07,08,10.00
2013,10,16,07,09,10.00
2013,10,16,07,10,10.00
2013,10,16,07,11,10.00
2013,10,16,07,12,10.00
2013,10,16,07,13,10.00
2013,10,16,07,14,10.00
2013,10,16,07,15,10.00
2013,10,16,07,16,10.00
2013,10,16,07,17,10.00
2013,10,16,07,18,10.00
2013,10,16,07,19,10.00
2013,10,16,07,20,10.00
2013,10,16,07,21,10.10
2013,10,16,07,22,10.10
2013,10,16,07,23,10.10
2013,10,16,07,24,10.10
2013,10,16,07,25,10.10
2013,10,16,07,26,10.10
2013,10,16,07,27,10.20
2013,10,16,07,28,10.20
2013,10,16,07,29,10.20
2013,10,16,07,30,10.20
2013,10,16,07,31,10.20
2013,10,16,07,32,10.20
2013,10,16,07,33,10.20
2013,10,16,07,34,10.20
2013,10,16,07,35,10.20
2013,10,16,07,36,10.20
2013,10,16,07,37,10.20
2013,10,16,07,38,10.20
2013,10,16,07,39,10.20
2013,10,16,07,40,10.20
2013,10,16,07,41,10.20
2013,10,16,07,42,10.20
2013,10,16,07,43,10.20
2013,10,16,07,44,10.20
2013,10,16,07,45,10.20
2013,10,16,07,46,10.20
2013,10,16,07,47,10.20
2013,10,16,07,48,10.20
2013,10,16,07,49,10.20
2013,10,16,07,50,10.20
2013,10,16,07,51,10.20
2013,10,16,07,52,10.20
2013,10,16,07,53,10.20
2013,10,16,07,54,10.20
2013,10,16,07,55,10.20
2013,10,16,07,56,10.20
2013,10,16,07,57,10.20
2013,10,16,07,58,10.30
2013,10,16,07,59,10.30
2013,10,16,08,00,10.30
2013,10,16,08,01,10.30
2013,10,16,08,02,10.30
2013,10,16,08,03,10.30
2013,10,16,08,04,10.30
2013,10,16,08,05,10.30
2013,10,16,08,06,10.30
2013,10,16,08,07,10.30
2013,10,16,08,08,10.30
2013,10,16,08,09,10.40
2013,10,16,08,10,10.40
2013,10,16,08,11,10.40
2013,10,16,08,12,10.40
2013,10,16,08,13,10.40
2013,10,16,08,14,10.40
2013,10,16,08,15,10.40
2013,10,16,08,16,10.40
2013,10,16,08,17,10.40
2013,10,16,08,18,10.40
2013,10,16,08,19,10.40
2013,10,16,08,20,10.40
2013,10,16,08,21,10.40
2013,10,16,08,22,10.40
2013,10,16,08,23,10.40
2013,10,16,08,24,10.40
2013,10,16,08,25,10.40
2013,10,16,08,26,10.40
2013,10,16,08,27,10.40
2013,10,16,08,28,10.40
2013,10,16,08,29,10.40
2013,10,16,08,30,10.40
2013,10,16,08,31,10.40
2013,10,16,08,32,10.40
2013,10,16,08,33,10.40
2013,10,16,08,34,10.50
2013,10,16,08,35,10.50
2013,10,16,08,36,10.50
2013,10,16,08,37,10.50
2013,10,16,08,38,10.50
2013,10,16,08,39,10.50
2013,10,16,08,40,10.50
2013,10,16,08,41,10.50
2013,10,16,08,42,10.60
2013,10,16,08,43,10.60
2013,10,16,08,44,10.60
2013,10,16,08,45,10.60
2013,10,16,08,46,10.60
2013,10,16,08,47,10.60
2013,10,16,08,48,10.60
2013,10,16,08,49,10.60
2013,10,16,08,50,10.60
2013,10,16,08,51,10.60
2013,10,16,08,52,10.60
2013,10,16,08,53,10.70
2013,10,16,08,54,10.70
2013,10,16,08,55,10.70
2013,10,16,08,56,10.70
2013,10,16,08,57,10.70
2013,10,16,08,58,10.70
2013,10,16,08,59,10.70
2013,10,16,09,00,10.70
2013,10,16,09,01,10.70
2013,10,16,09,02,10.70
2013,10,16,09,03,10.70
2013,10,16,09,04,10.70
2013,10,16,09,05,10.70
2013,10,16,09,06,10.70
2013,10,16,09,07,10.70
2013,10,16,09,08,10.70
2013,10,16,09,09,10.70
2013,10,16,09,10,10.70
2013,10,16,09,11,10.80
2013,10,16,09,12,10.80
2013,10,16,09,13,10.80
2013,10,16,09,14,10.80
2013,10,16,09,15,10.80
2013,10,16,09,16,10.80
2013,10,16,09,17,10.80
2013,10,16,09,18,10.80
2013,10,16,09,19,10.80
2013,10,16,09,20,10.80
2013,10,16,09,21,10.80
2013,10,16,09,22,10.80
2013,10,16,09,23,10.80
2013,10,16,09,24,10.80
2013,10,16,09,25,10.80
2013,10,16,09,26,10.80
2013,10,16,09,27,10.80
2013,10,16,09,28,10.80
2013,10,16,09,29,10.90
2013,10,16,09,30,10.90
2013,10,16,09,31,10.90
2013,10,16,09,32,10.90
2013,10,16,09,33,10.90
2013,10,16,09,34,10.90
2013,10,16,09,35,10.90
2013,10,16,09,36,10.90
2013,10,16,09,37,10.90
2013,10,16,09,38,11.00
2013,10,16,09,39,11.00
2013,10,16,09,40,11.00
2013,10,16,09,41,11.10
2013,10,16,09,42,11.10
2013,10,16,09,43,11.10
2013,10,16,09,44,11.10
2013,10,16,09,45,11.10
2013,10,16,09,46,11.10
2013,10,16,09,47,11.10
2013,10,16,09,48,11.10
2013,10,16,09,49,11.10
2013,10,16,09,50,11.20
2013,10,16,09,51,11.20
2013,10,16,09,52,11.20
2013,10,16,09,53,11.20
2013,10,16,09,54,11.20
2013,10,16,09,55,11.20
2013,10,16,09,56,11.20
2013,10,16,09,57,11.20
2013,10,16,09,58,11.20
2013,10,16,09,59,11.30
2013,10,16,10,00,11.30
2013,10,16,10,01,11.30
2013,10,16,10,02,11.30
2013,10,16,10,03,11.30
2013,10,16,10,04,11.30
2013,10,16,10,05,11.40
2013,10,16,10,06,11.40
2013,10,16,10,07,11.40
2013,10,16,10,08,11.50
2013,10,16,10,09,11.50
2013,10,16,10,10,11.60
2013,10,16,10,11,11.60
2013,10,16,10,12,11.60
2013,10,16,10,13,11.60
2013,10,16,10,14,11.70
2013,10,16,10,15,11.70
2013,10,16,10,16,11.70
2013,10,16,10,17,11.70
2013,10,16,10,18,11.70
2013,10,16,10,19,11.70
2013,10,16,10,20,11.70
2013,10,16,10,21,11.70
2013,10,16,10,22,11.70
2013,10,16,10,23,11.70
2013,10,16,10,24,11.70
2013,10,16,10,25,11.70
2013,10,16,10,26,11.70
2013,10,16,10,27,11.70
2013,10,16,10,28,11.70
2013,10,16,10,29,11.70
2013,10,16,10,30,11.60
2013,10,16,10,31,11.60
2013,10,16,10,32,11.60
2013,10,16,10,33,11.60
2013,10,16,10,34,11.60
2013,10,16,10,35,11.60
2013,10,16,10,36,11.60
2013,10,16,10,37,11.50
2013,10,16,10,38,11.50
2013,10,16,10,39,11.50
2013,10,16,10,40,11.50
2013,10,16,10,41,11.50
2013,10,16,10,42,11.50
2013,10,16,10,43,11.50
2013,10,16,10,44,11.50
2013,10,16,10,45,11.50
2013,10,16,10,46,11.50
2013,10,16,10,47,11.50
2013,10,16,10,48,11.50
2013,10,16,10,49,11.50
2013,10,16,10,50,11.50
2013,10,16,10,51,11.50
2013,10,16,10,52,11.50
2013,10,16,10,53,11.50
2013,10,16,10,54,11.50
2013,10,16,10,55,11.50
2013,10,16,10,56,11.50
2013,10,16,10,57,11.50
2013,10,16,10,58,11.50
2013,10,16,10,59,11.50
2013,10,16,11,00,11.50
2013,10,16,11,01,11.50
2013,10,16,11,02,11.50
2013,10,16,11,03,11.50
2013,10,16,11,04,11.60
2013,10,16,11,05,11.60
2013,10,16,11,06,11.60
2013,10,16,11,07,11.60
2013,10,16,11,08,11.60
2013,10,16,11,09,11.60
2013,10,16,11,10,11.60
2013,10,16,11,11,11.60
2013,10,16,11,12,11.60
2013,10,16,11,13,11.60
2013,10,16,11,14,11.60
2013,10,16,11,15,11.60
2013,10,16,11,16,11.60
2013,10,16,11,17,11.60
2013,10,16,11,18,11.60
2013,10,16,11,19,11.60
2013,10,16,11,20,11.60
2013,10,16,11,21,11.60
2013,10,16,11,22,11.70
2013,10,16,11,23,11.70
2013,10,16,11,24,11.70
2013,10,16,11,25,11.70
2013,10,16,11,26,11.70
2013,10,16,11,27,11.70
2013,10,16,11,28,11.70
2013,10,16,11,29,11.70
2013,10,16,11,30,11.70
2013,10,16,11,31,11.70
2013,10,16,11,32,11.80
2013,10,16,11,33,11.80
2013,10,16,11,34,11.80
2013,10,16,11,35,11.80
2013,10,16,11,36,11.80
2013,10,16,11,37,11.80
2013,10,16,11,38,11.80
2013,10,16,11,39,11.80
2013,10,16,11,40,11.80
2013,10,16,11,41,11.80
2013,10,16,11,42,11.80
2013,10,16,11,43,11.80
2013,10,16,11,44,11.80
2013,10,16,11,45,11.80
2013,10,16,11,46,11.90
2013,10,16,11,47,11.90
2013,10,16,11,48,11.90
2013,10,16,11,49,11.90
2013,10,16,11,50,11.90
2013,10,16,11,51,11.90
2013,10,16,11,52,11.90
2013,10,16,11,53,11.90
2013,10,16,11,54,11.90
2013,10,16,11,55,11.90
2013,10,16,11,56,11.90
2013,10,16,11,57,11.90
2013,10,16,11,58,11.90
2013,10,16,11,59,11.90
2013,10,16,12,00,11.90
2013,10,16,12,01,11.90
2013,10,16,12,02,11.90
2013,10,16,12,03,11.90
2013,10,16,12,04,11.90
2013,10,16,12,05,11.90
2013,10,16,12,06,11.90
2013,10,16,12,07,11.90
2013,10,16,12,08,12.00
2013,10,16,12,09,12.00
2013,10,16,12,10,12.10
2013,10,16,12,11,12.10
2013,10,16,12,12,12.10
2013,10,16,12,13,12.10
2013,10,16,12,14,12.20
2013,10,16,12,15,12.20
2013,10,16,12,16,12.20
2013,10,16,12,17,12.20
2013,10,16,12,18,12.30
2013,10,16,12,19,12.30
2013,10,16,12,20,12.30
2013,10,16,12,21,12.40
2013,10,16,12,22,12.40
2013,10,16,12,23,12.40
2013,10,16,12,24,12.40
2013,10,16,12,25,12.40
2013,10,16,12,26,12.50
2013,10,16,12,27,12.50
2013,10,16,12,28,12.50
2013,10,16,12,29,12.50
2013,10,16,12,30,12.50
2013,10,16,12,31,12.50
2013,10,16,12,32,12.50
2013,10,16,12,33,12.50
2013,10,16,12,34,12.50
2013,10,16,12,35,12.50
2013,10,16,12,36,12.50
2013,10,16,12,37,12.50
2013,10,16,12,38,12.50
2013,10,16,12,39,12.50
2013,10,16,12,40,12.50
2013,10,16,12,41,12.50
2013,10,16,12,42,12.50
2013,10,16,12,43,12.50
2013,10,16,12,44,12.50
2013,10,16,12,45,12.60
2013,10,16,12,46,12.60
2013,10,16,12,47,12.60
2013,10,16,12,48,12.70
2013,10,16,12,49,12.70
2013,10,16,12,50,12.70
2013,10,16,12,51,12.70
2013,10,16,12,52,12.70
2013,10,16,12,53,12.70
2013,10,16,12,54,12.70
2013,10,16,12,55,12.70
2013,10,16,12,56,12.70
2013,10,16,12,57,12.60
2013,10,16,12,58,12.60
2013,10,16,12,59,12.60
2013,10,16,13,00,12.50
2013,10,16,13,01,12.40
2013,10,16,13,02,12.40
2013,10,16,13,03,12.30
2013,10,16,13,04,12.30
2013,10,16,13,05,12.30
2013,10,16,13,06,12.30
2013,10,16,13,07,12.30
2013,10,16,13,08,12.30
2013,10,16,13,09,12.30
2013,10,16,13,10,12.30
2013,10,16,13,11,12.30
2013,10,16,13,12,12.20
2013,10,16,13,13,12.20
2013,10,16,13,14,12.20
2013,10,16,13,15,12.20
2013,10,16,13,16,12.20
2013,10,16,13,17,12.20
2013,10,16,13,18,12.20
2013,10,16,13,19,12.30
2013,10,16,13,20,12.30
2013,10,16,13,21,12.30
2013,10,16,13,22,12.40
2013,10,16,13,23,12.40
2013,10,16,13,24,12.40
2013,10,16,13,25,12.40
2013,10,16,13,26,12.50
2013,10,16,13,27,12.50
2013,10,16,13,28,12.50
2013,10,16,13,29,12.60
2013,10,16,13,30,12.60
2013,10,16,13,31,12.60
2013,10,16,13,32,12.50
2013,10,16,13,33,12.50
2013,10,16,13,34,12.50
2013,10,16,13,35,12.50
2013,10,16,13,36,12.50
2013,10,16,13,37,12.50
2013,10,16,13,38,12.50
2013,10,16,13,39,12.50
2013,10,16,13,40,12.50
2013,10,16,13,41,12.50
2013,10,16,13,42,12.50
2013,10,16,13,43,12.50
2013,10,16,13,44,12.50
2013,10,16,13,45,12.60
2013,10,16,13,46,12.60
2013,10,16,13,47,12.60
2013,10,16,13,48,12.60
2013,10,16,13,49,12.60
2013,10,16,13,50,12.70
2013,10,16,13,51,12.70
2013,10,16,13,52,12.70
2013,10,16,13,53,12.80
2013,10,16,13,54,12.80
2013,10,16,13,55,12.80
2013,10,16,13,56,12.80
2013,10,16,13,57,12.80
2013,10,16,13,58,12.90
2013,10,16,13,59,12.80
2013,10,16,14,00,12.90
2013,10,16,14,01,12.80
2013,10,16,14,02,12.80
2013,10,16,14,03,12.80
2013,10,16,14,04,12.80
2013,10,16,14,05,12.80
2013,10,16,14,06,12.80
2013,10,16,14,07,12.80
2013,10,16,14,08,12.80
2013,10,16,14,09,12.70
2013,10,16,14,10,12.70
2013,10,16,14,11,12.70
2013,10,16,14,12,12.70
2013,10,16,14,13,12.70
2013,10,16,14,14,12.70
2013,10,16,14,15,12.70
2013,10,16,14,16,12.70
2013,10,16,14,17,12.70
2013,10,16,14,18,12.70
2013,10,16,14,19,12.80
2013,10,16,14,20,12.80
2013,10,16,14,21,12.80
2013,10,16,14,22,12.80
2013,10,16,14,23,12.80
2013,10,16,14,24,12.80
2013,10,16,14,25,12.80
2013,10,16,14,26,12.80
2013,10,16,14,27,12.80
2013,10,16,14,28,12.80
2013,10,16,14,29,12.80
2013,10,16,14,30,12.80
2013,10,16,14,31,12.80
2013,10,16,14,32,12.80
2013,10,16,14,33,12.70
2013,10,16,14,34,12.70
2013,10,16,14,35,12.70
2013,10,16,14,36,12.60
2013,10,16,14,37,12.60
2013,10,16,14,38,12.60
2013,10,16,14,39,12.60
2013,10,16,14,40,12.60
2013,10,16,14,41,12.60
2013,10,16,14,42,12.60
2013,10,16,14,43,12.50
2013,10,16,14,44,12.50
2013,10,16,14,45,12.50
2013,10,16,14,46,12.50
2013,10,16,14,47,12.60
2013,10,16,14,48,12.60
2013,10,16,14,49,12.60
2013,10,16,14,50,12.60
2013,10,16,14,51,12.60
2013,10,16,14,52,12.60
2013,10,16,14,53,12.60
2013,10,16,14,54,12.60
2013,10,16,14,55,12.60
2013,10,16,14,56,12.70
2013,10,16,14,57,12.70
2013,10,16,14,58,12.70
2013,10,16,14,59,12.70
2013,10,16,15,00,12.70
2013,10,16,15,01,12.70
2013,10,16,15,02,12.70
2013,10,16,15,03,12.70
2013,10,16,15,04,12.70
2013,10,16,15,05,12.70
2013,10,16,15,06,12.70
2013,10,16,15,07,12.70
2013,10,16,15,08,12.70
2013,10,16,15,09,12.70
2013,10,16,15,10,12.70
2013,10,16,15,11,12.70
2013,10,16,15,12,12.70
2013,10,16,15,13,12.70
2013,10,16,15,14,12.70
2013,10,16,15,15,12.60
2013,10,16,15,16,12.60
2013,10,16,15,17,12.60
2013,10,16,15,18,12.50
2013,10,16,15,19,12.40
2013,10,16,15,20,12.40
2013,10,16,15,21,12.40
2013,10,16,15,22,12.40
2013,10,16,15,23,12.40
2013,10,16,15,24,12.30
2013,10,16,15,25,12.30
2013,10,16,15,26,12.30
2013,10,16,15,27,12.30
2013,10,16,15,28,12.30
2013,10,16,15,29,12.30
2013,10,16,15,30,12.30
2013,10,16,15,31,12.30
2013,10,16,15,32,12.30
2013,10,16,15,33,12.30
2013,10,16,15,34,12.30
2013,10,16,15,35,12.30
2013,10,16,15,36,12.30
2013,10,16,15,37,12.30
2013,10,16,15,38,12.30
2013,10,16,15,39,12.30
2013,10,16,15,40,12.30
2013,10,16,15,41,12.30
2013,10,16,15,42,12.40
2013,10,16,15,43,12.40
2013,10,16,15,44,12.40
2013,10,16,15,45,12.30
2013,10,16,15,46,12.30
2013,10,16,15,47,12.30
2013,10,16,15,48,12.30
2013,10,16,15,49,12.40
2013,10,16,15,50,12.40
2013,10,16,15,51,12.40
2013,10,16,15,52,12.40
2013,10,16,15,53,12.40
2013,10,16,15,54,12.40
2013,10,16,15,55,12.40
2013,10,16,15,56,12.40
2013,10,16,15,57,12.40
2013,10,16,15,58,12.40
2013,10,16,15,59,12.40
2013,10,16,16,00,12.40
2013,10,16,16,01,12.40
2013,10,16,16,02,12.40
2013,10,16,16,03,12.40
2013,10,16,16,04,12.40
2013,10,16,16,05,12.40
2013,10,16,16,06,12.40
2013,10,16,16,07,12.40
2013,10,16,16,08,12.40
2013,10,16,16,09,12.40
2013,10,16,16,10,12.40
2013,10,16,16,11,12.40
2013,10,16,16,12,12.30
2013,10,16,16,13,12.30
2013,10,16,16,14,12.30
2013,10,16,16,15,12.30
2013,10,16,16,16,12.30
2013,10,16,16,17,12.30
2013,10,16,16,18,12.30
2013,10,16,16,19,12.30
2013,10,16,16,20,12.30
2013,10,16,16,21,12.30
2013,10,16,16,22,12.30
2013,10,16,16,23,12.30
2013,10,16,16,24,12.40
2013,10,16,16,25,12.40
2013,10,16,16,26,12.40
2013,10,16,16,27,12.50
2013,10,16,16,28,12.50
2013,10,16,16,29,12.60
2013,10,16,16,30,12.60
2013,10,16,16,31,12.60
2013,10,16,16,32,12.70
2013,10,16,16,33,12.70
2013,10,16,16,34,12.70
2013,10,16,16,35,12.70
2013,10,16,16,36,12.70
2013,10,16,16,37,12.60
2013,10,16,16,38,12.60
2013,10,16,16,39,12.60
2013,10,16,16,40,12.60
2013,10,16,16,41,12.60
2013,10,16,16,42,12.60
2013,10,16,16,43,12.60
2013,10,16,16,44,12.60
2013,10,16,16,45,12.60
2013,10,16,16,46,12.70
2013,10,16,16,47,12.70
2013,10,16,16,48,12.80
2013,10,16,16,49,12.80
2013,10,16,16,50,12.80
2013,10,16,16,51,12.90
2013,10,16,16,52,12.90
2013,10,16,16,53,12.90
2013,10,16,16,54,13.00
2013,10,16,16,55,13.00
2013,10,16,16,56,12.90
2013,10,16,16,57,12.90
2013,10,16,16,58,12.90
2013,10,16,16,59,12.90
2013,10,16,17,00,12.90
2013,10,16,17,01,12.90
2013,10,16,17,02,12.90
2013,10,16,17,03,12.90
2013,10,16,17,04,12.90
2013,10,16,17,05,12.90
2013,10,16,17,06,13.00
2013,10,16,17,07,13.00
2013,10,16,17,08,13.10
2013,10,16,17,09,13.10
2013,10,16,17,10,13.10
2013,10,16,17,11,13.20
2013,10,16,17,12,13.20
2013,10,16,17,13,13.20
2013,10,16,17,14,13.20
2013,10,16,17,15,13.20
2013,10,16,17,16,13.20
2013,10,16,17,17,13.20
2013,10,16,17,18,13.20
2013,10,16,17,19,13.10
2013,10,16,17,20,13.10
2013,10,16,17,21,13.00
2013,10,16,17,22,13.00
2013,10,16,17,23,12.90
2013,10,16,17,24,12.90
2013,10,16,17,25,12.90
2013,10,16,17,26,12.80
2013,10,16,17,27,12.80
2013,10,16,17,28,12.70
2013,10,16,17,29,12.70
2013,10,16,17,30,12.70